Theta_e
324 325 325 324 324 325 326 326 331 330 329 333 334 335 336 332 333 334 332 329 326 322 321 323 320 320 321 320 322 330 334 335 337 337 341 338 336 340 336 332 333 332 329 334 339 338 337 337 336 334 336 336 334 334 331 331 329 328 326 325 323 320 317 317 326 333 333 333 332 330 319 309 312 320 324 325 326 324 322 323 326 328 328 326 323 324 322 319 327 336 338 338 339 338 333 325 318
323 323 323 323 323 325 325 324 332 333 329 334 334 334 335 332 333 333 331 328 326 323 321 321 322 327 329 324 325 334 337 337 337 336 337 336 339 339 336 336 334 331 329 334 338 338 338 337 335 335 336 336 334 333 332 331 329 328 326 324 325 322 318 316 325 333 333 334 333 332 324 311 308 312 318 321 323 324 325 324 323 325 324 322 323 324 319 320 330 336 338 338 339 336 331 323 316
321 320 321 323 324 324 324 324 330 333 332 334 334 333 333 332 333 332 328 325 323 322 322 321 325 333 336 332 332 336 337 337 338 336 336 337 339 337 337 338 335 333 330 332 337 337 337 336 335 335 335 335 334 333 332 332 329 328 326 323 326 324 318 314 323 332 334 334 334 334 326 312 308 311 315 318 322 325 326 324 321 323 321 320 323 321 320 326 332 336 338 339 339 335 330 321 314
320 320 321 323 323 323 325 327 330 332 333 334 334 333 332 332 331 329 326 323 322 322 323 321 324 333 339 339 338 338 337 338 337 336 335 337 339 336 338 339 338 336 333 332 334 336 336 335 335 335 335 335 334 333 332 332 330 328 325 322 325 325 320 314 318 329 335 334 334 334 323 312 309 312 318 320 323 326 324 321 319 320 319 320 320 320 327 332 334 336 337 339 338 335 329 319 314
320 321 322 323 323 324 326 328 329 331 333 334 336 332 331 332 329 328 324 322 322 322 323 323 326 333 338 339 338 338 338 338 337 337 336 338 337 336 338 339 339 339 338 336 334 336 335 335 336 335 335 335 335 333 332 332 331 328 325 322 324 325 322 315 314 323 332 334 334 332 321 317 315 311 315 317 318 321 319 316 315 316 316 317 320 327 333 334 336 337 337 338 337 333 327 318 315
320 321 322 322 323 324 325 329 329 330 331 332 336 332 330 332 329 327 325 322 322 322 323 324 326 329 334 337 337 338 337 337 337 337 337 338 337 337 338 338 340 340 341 340 338 337 335 336 336 336 336 335 335 334 332 332 331 328 324 323 323 323 321 316 313 318 328 333 334 332 323 320 318 315 317 316 316 316 314 314 317 319 321 322 326 333 335 336 337 337 338 338 336 333 327 319 316
319 321 321 322 323 324 326 329 329 330 331 328 332 333 330 331 327 326 326 324 323 322 323 325 325 329 334 335 336 336 335 337 337 337 338 338 338 338 339 338 339 339 341 342 341 338 335 336 336 336 336 336 336 334 333 332 332 328 324 323 323 321 320 316 313 315 323 330 333 332 326 321 320 323 325 324 324 321 318 321 324 326 328 329 332 335 335 337 338 337 338 337 336 333 328 321 316
319 320 321 324 323 324 327 328 328 330 330 326 329 331 329 328 325 327 328 326 326 323 324 325 326 333 336 334 336 335 335 337 337 338 338 338 339 339 339 339 338 339 340 341 341 340 337 336 337 337 336 337 337 335 333 332 332 329 325 324 323 321 319 316 313 313 317 325 331 333 329 324 323 326 328 328 329 327 324 326 329 330 331 333 334 335 336 338 338 339 338 336 336 334 330 325 319
319 321 322 325 325 325 327 327 328 328 329 328 327 327 326 326 324 327 328 326 326 323 324 325 329 336 335 332 333 334 334 336 337 337 338 339 339 338 339 339 339 339 339 340 341 341 339 338 337 338 338 338 338 336 334 333 332 330 326 324 323 321 318 316 314 313 313 317 324 330 331 328 324 324 327 329 330 329 329 329 330 332 332 334 335 336 337 337 338 339 337 336 337 335 333 329 321
320 322 323 325 326 327 328 328 328 328 328 327 327 325 325 325 324 326 327 326 325 324 324 325 329 332 331 329 329 331 334 335 336 337 337 339 339 338 338 340 340 338 338 339 340 341 340 340 339 338 339 338 338 337 334 333 333 332 329 325 323 321 319 316 316 315 313 313 316 322 328 329 327 323 323 325 329 330 332 332 332 333 334 334 335 336 337 337 338 338 338 337 337 336 334 331 325
321 323 324 325 327 329 329 329 329 329 328 325 324 324 324 324 325 326 327 326 324 324 324 325 327 326 327 329 326 328 331 333 337 336 336 338 339 340 338 339 340 339 337 337 339 340 340 340 340 339 339 339 338 338 335 333 333 333 330 326 323 322 321 318 317 317 316 315 313 314 318 324 326 326 323 322 324 328 331 333 333 334 334 334 335 336 336 337 337 338 338 337 337 335 333 331 329
322 324 324 326 328 328 328 329 329 328 328 327 325 324 323 324 326 327 327 327 324 324 323 324 326 326 330 331 327 327 329 332 335 336 336 337 338 339 339 339 339 339 338 337 338 339 340 340 341 340 339 339 339 339 337 335 333 333 331 328 324 323 322 321 320 319 319 318 317 315 313 315 319 322 322 321 321 323 328 332 333 333 333 334 334 335 335 336 336 337 338 337 336 336 334 332 330
322 324 325 327 327 328 328 329 328 327 329 328 325 324 324 324 325 326 326 326 325 325 324 323 324 326 329 330 327 326 327 329 332 334 336 336 337 338 338 337 339 340 338 338 337 337 339 340 340 340 340 339 339 340 338 336 334 332 333 331 327 324 323 323 322 321 321 320 320 318 316 315 315 316 317 317 317 317 321 327 331 332 332 332 332 333 334 335 336 336 337 337 336 335 335 332 330
322 323 325 327 328 329 329 329 329 327 330 328 323 323 324 323 324 324 325 326 326 325 324 322 323 326 326 327 328 325 325 327 329 333 336 336 336 337 338 337 339 340 339 338 337 336 337 338 339 340 339 340 339 340 339 336 334 332 333 333 330 326 324 324 323 323 323 322 321 320 319 318 317 317 316 315 314 313 314 317 321 325 327 328 329 330 330 332 334 335 336 336 336 335 333 331 329
322 323 324 327 328 329 329 328 329 328 329 328 324 323 324 323 323 324 324 326 326 324 323 322 322 325 326 328 329 325 324 326 329 333 335 336 336 337 337 336 339 339 338 338 337 336 335 336 338 340 339 340 340 340 339 337 336 334 333 333 333 330 326 325 324 324 324 323 323 321 321 320 319 319 318 317 315 314 313 312 313 314 317 319 322 325 327 328 330 332 334 335 336 336 335 333 331
322 323 324 327 328 329 328 326 328 328 328 328 325 323 324 324 323 323 324 324 325 324 323 323 322 323 325 327 328 325 324 325 328 332 333 335 336 337 337 336 338 339 339 337 337 336 335 335 336 339 339 339 340 340 339 338 337 334 333 333 333 333 330 327 326 325 325 325 325 324 323 322 321 320 320 319 317 316 314 313 312 311 311 312 313 315 319 324 327 328 331 333 334 335 335 336 335
322 323 325 327 328 329 329 327 327 328 329 329 325 323 324 325 324 324 324 323 324 325 324 324 323 323 323 325 326 325 324 323 326 329 331 334 334 336 337 338 339 339 339 337 337 337 335 335 336 337 339 339 339 340 339 339 337 334 333 333 333 334 333 331 329 327 326 326 326 326 326 325 324 322 321 321 320 320 317 315 313 312 312 311 311 310 311 315 320 324 327 330 332 333 334 335 335
322 324 326 327 328 328 328 328 326 326 328 328 326 323 324 325 325 324 325 324 323 324 325 324 324 323 323 324 323 323 323 322 324 325 327 330 333 336 337 338 339 339 339 338 337 337 336 337 336 337 339 339 339 340 339 339 338 335 334 334 334 335 335 333 331 330 328 328 327 327 327 327 326 325 324 322 322 322 321 320 317 316 315 313 312 311 310 308 311 316 322 326 328 329 331 331 332
322 324 326 326 328 326 323 325 325 325 326 326 327 325 323 325 325 324 326 326 324 324 325 324 325 324 324 324 323 323 322 322 322 322 323 325 328 332 335 336 338 339 339 338 337 337 337 337 336 336 338 339 339 340 339 339 339 336 334 335 335 335 335 335 334 332 331 330 329 329 329 328 327 327 327 326 325 324 323 323 322 321 320 318 316 314 313 310 308 309 315 321 324 325 326 328 328
322 323 326 326 326 324 320 320 321 321 322 323 327 326 324 325 325 325 326 326 324 324 325 324 324 324 324 324 324 323 323 323 322 322 323 322 323 326 329 332 333 336 337 337 337 338 338 337 336 336 337 337 338 338 338 339 338 337 336 336 336 335 335 335 336 335 333 332 330 331 331 330 329 328 328 328 328 327 326 325 324 324 324 323 321 318 315 313 311 308 308 312 317 321 323 324 325
322 323 325 323 321 323 321 319 318 318 318 321 325 326 325 326 326 325 325 326 326 324 324 324 324 324 323 324 324 324 323 323 323 323 323 323 323 323 324 326 329 332 333 334 336 338 338 337 336 335 335 335 335 336 336 337 337 338 337 337 336 336 335 334 334 336 335 334 332 331 332 332 332 330 329 329 328 329 328 327 325 325 325 326 325 323 319 316 314 312 309 307 309 313 317 320 321
322 322 322 320 318 322 322 318 317 318 319 321 324 327 325 325 326 326 325 326 326 324 324 324 323 324 323 324 324 324 324 323 324 323 323 323 323 323 323 323 327 330 330 331 332 334 335 337 337 335 335 336 335 333 334 335 335 336 337 337 337 336 336 332 332 333 334 335 334 333 332 332 333 333 332 330 328 329 329 329 328 326 326 327 327 327 324 321 318 315 312 309 306 307 309 312 315
322 321 317 318 319 321 321 317 317 318 320 322 323 325 324 325 325 324 325 325 324 323 323 324 323 324 323 323 324 324 324 324 324 323 323 323 323 324 323 323 325 328 328 329 330 330 332 335 338 337 335 335 335 333 332 333 334 336 337 337 337 337 335 332 330 330 331 333 335 335 334 332 333 334 334 332 330 329 329 330 329 329 328 328 329 329 327 324 322 320 317 313 309 306 306 306 308
322 320 316 317 317 317 318 317 317 317 319 321 322 322 321 324 323 320 323 325 324 323 322 322 323 323 322 322 322 323 323 322 322 322 322 323 323 324 324 323 323 324 324 325 326 328 329 331 335 337 336 336 335 333 332 331 332 335 337 336 336 336 335 333 330 328 328 330 333 335 335 334 334 335 335 334 332 331 330 330 330 330 330 330 331 331 330 327 324 324 322 319 315 310 307 306 305
321 320 316 316 314 313 314 315 316 316 317 318 319 319 315 318 318 315 320 324 324 324 324 323 323 322 322 320 320 320 320 319 318 319 321 322 324 324 324 324 324 323 323 322 323 327 329 328 330 333 335 336 335 335 333 330 329 332 335 336 336 336 335 334 332 330 330 330 332 333 334 334 334 335 334 333 333 333 333 332 331 331 332 332 332 332 331 330 327 326 326 326 323 318 313 309 307
319 319 317 316 314 311 311 314 314 313 315 314 316 317 312 311 314 316 320 321 321 323 324 325 324 323 322 322 321 321 319 318 317 318 320 321 323 323 323 323 323 323 323 322 322 327 330 326 326 327 330 334 335 335 334 330 328 329 333 335 335 335 334 334 333 333 333 332 332 331 332 331 331 332 331 331 332 333 334 334 333 333 333 333 333 333 333 332 331 328 328 329 329 326 321 315 311
315 317 317 317 315 310 309 311 312 311 312 311 314 317 312 308 312 319 319 315 317 319 321 322 323 322 322 323 323 322 320 319 319 319 320 321 321 321 321 321 321 321 322 322 321 325 330 328 325 325 326 331 334 336 335 333 330 328 330 333 334 333 331 331 330 332 334 333 332 330 329 327 327 328 329 329 329 331 333 333 334 334 334 334 334 333 333 334 333 331 329 329 330 330 326 319 314
312 314 316 315 312 310 308 307 309 310 310 309 310 313 308 306 311 316 315 311 312 313 315 316 317 319 320 322 322 322 321 319 319 320 320 320 318 317 317 317 317 318 319 320 321 323 329 329 327 325 325 327 330 332 333 334 334 331 329 329 330 331 330 329 329 331 332 332 331 329 328 326 323 324 325 326 328 329 330 331 332 333 334 335 335 334 334 334 334 333 331 330 330 331 329 322 316
310 312 315 315 309 311 310 306 306 308 310 307 308 314 313 310 311 311 311 310 311 311 310 309 309 313 317 321 322 321 321 321 320 319 316 314 314 314 314 314 314 315 315 317 318 321 326 330 329 326 324 324 324 325 328 331 332 333 332 330 328 327 328 329 328 327 326 326 327 327 326 325 323 321 320 321 324 326 327 328 330 332 333 333 334 335 335 335 335 335 333 331 331 331 330 325 318
309 310 313 314 310 314 310 304 306 306 308 306 309 317 318 315 309 305 307 308 308 309 308 307 307 308 311 316 319 321 321 321 318 314 310 309 311 310 311 312 312 314 315 314 315 317 324 329 330 328 324 323 323 322 325 328 326 326 329 332 332 330 328 327 326 325 324 323 324 324 324 324 326 324 320 318 318 321 324 327 329 330 332 332 332 334 335 335 335 335 334 333 332 332 331 327 320
310 308 308 310 311 316 308 301 306 309 307 305 310 317 315 315 310 303 304 305 305 306 306 307 307 308 310 312 314 316 317 314 310 307 307 310 312 312 311 311 311 312 314 315 316 316 322 328 329 329 325 323 324 323 323 325 323 322 325 328 330 332 332 329 327 326 325 325 326 327 326 324 326 327 326 324 321 319 320 322 326 330 331 331 332 333 333 334 334 334 335 334 333 332 332 328 322
310 309 309 308 308 314 309 301 305 311 309 304 309 315 312 312 308 303 303 305 305 304 305 306 306 308 310 310 310 310 309 307 304 304 306 309 310 311 312 313 314 314 315 317 318 317 320 326 327 328 327 326 326 326 325 324 322 324 325 325 325 328 330 331 330 330 328 328 329 329 329 328 328 329 330 330 328 326 324 322 322 326 330 330 330 331 330 331 332 334 334 333 333 332 331 329 325
308 308 309 308 307 309 308 304 302 306 309 305 307 313 312 308 304 302 303 305 305 303 304 305 305 307 308 308 307 306 305 304 304 304 305 306 305 305 306 308 311 315 318 320 320 318 319 322 325 327 327 326 327 327 327 324 322 324 325 325 325 324 325 326 328 331 331 331 332 332 332 332 331 328 326 326 328 327 325 325 323 323 326 326 326 325 325 329 332 333 333 333 332 331 331 330 328
306 305 306 306 306 306 307 306 301 302 308 307 306 309 311 309 302 300 302 303 304 304 304 305 305 306 306 306 304 304 304 304 304 304 304 304 303 303 303 303 304 308 315 320 321 320 319 319 320 322 323 325 326 328 328 325 323 325 326 325 324 323 323 323 324 327 331 332 333 333 333 333 329 325 321 321 325 327 324 324 324 323 324 323 321 319 322 329 331 333 334 333 332 330 330 331 330
306 305 306 304 304 304 305 306 302 302 307 307 307 306 307 309 304 300 301 302 302 302 303 304 304 304 304 304 303 303 303 302 301 302 303 303 303 303 303 303 303 303 308 315 319 320 320 320 319 319 321 322 324 327 328 326 325 327 327 325 323 322 322 323 323 323 327 331 331 331 332 332 329 325 322 319 321 326 327 323 321 322 324 321 317 319 326 331 332 334 335 333 332 330 329 331 332
306 305 305 304 304 304 304 306 304 303 305 307 306 305 305 306 305 302 301 301 301 301 301 301 301 301 301 301 300 300 299 299 299 300 301 302 302 303 303 303 303 302 304 309 316 319 320 319 318 318 318 317 318 323 325 326 327 327 325 323 322 323 323 323 322 321 323 325 324 325 330 333 329 323 324 324 320 320 324 321 317 319 321 319 320 325 329 332 333 334 334 334 332 330 330 331 332
306 304 304 303 303 304 304 304 304 302 305 307 305 305 306 305 306 303 299 300 301 298 297 296 297 298 298 298 298 298 298 299 299 300 300 301 301 302 302 302 302 303 302 305 312 316 318 317 316 316 314 311 312 315 318 322 326 326 324 322 322 324 324 324 323 322 321 321 320 321 327 332 330 325 326 329 323 321 324 322 320 321 323 325 328 330 332 333 334 333 334 333 330 331 330 328 329
306 305 304 303 303 304 304 303 303 302 304 307 304 305 307 304 306 303 299 301 299 294 293 293 294 296 297 297 297 298 298 298 299 300 300 301 301 301 302 302 302 303 303 304 308 312 314 315 315 314 313 310 309 309 310 314 320 323 324 323 323 324 323 323 323 323 323 323 322 322 325 327 325 324 326 328 327 328 330 328 328 329 329 331 332 332 333 334 334 333 333 332 330 331 331 327 328
306 305 303 304 303 303 303 301 301 302 304 307 305 304 307 305 305 302 298 298 295 292 294 293 293 294 294 294 294 296 297 298 299 299 300 300 301 301 302 302 302 302 303 303 305 308 310 312 312 312 311 311 309 308 307 307 310 316 320 322 323 323 322 321 322 322 322 323 322 321 322 322 319 320 322 324 325 328 329 330 331 331 331 332 333 333 333 333 333 332 332 332 331 331 331 330 330
302 302 303 304 302 301 303 301 299 301 302 304 304 303 307 306 304 299 295 294 292 292 293 292 292 292 290 291 291 293 295 296 297 297 298 299 300 301 301 301 302 302 302 303 304 305 306 307 308 308 309 309 308 307 306 306 306 309 314 319 321 321 321 320 320 320 320 321 322 322 321 320 319 320 320 320 321 322 324 325 326 325 325 328 331 333 333 332 333 332 332 332 332 331 331 331 328
301 300 301 302 302 301 302 301 300 302 300 300 302 305 308 307 305 300 294 292 292 292 291 290 290 289 289 290 290 291 291 292 294 295 296 297 298 299 299 300 301 301 302 302 302 303 304 305 306 306 307 307 307 307 306 306 307 307 309 314 320 322 321 320 320 318 318 319 320 321 322 322 321 321 321 320 320 320 321 321 321 320 320 322 325 329 331 331 331 331 331 332 332 331 330 330 328
301 300 300 302 304 303 301 301 302 303 301 301 301 305 312 311 305 299 295 294 292 290 289 288 288 288 288 289 288 288 289 290 291 292 293 295 296 297 298 299 300 300 300 300 301 301 302 303 304 305 306 306 306 306 306 307 308 309 309 310 317 322 322 322 321 318 317 318 319 319 320 322 322 322 324 323 322 322 322 320 320 320 320 319 321 324 326 326 325 326 328 329 330 331 330 329 328
301 300 299 302 303 303 303 301 302 304 303 300 298 303 312 310 302 294 293 293 291 289 288 288 288 287 287 287 286 286 287 289 290 291 292 293 294 295 296 297 297 298 298 298 299 300 301 302 303 304 305 305 306 306 307 307 308 309 310 311 313 317 319 320 320 320 320 320 319 318 319 320 320 321 323 325 325 325 325 323 320 319 320 319 320 321 323 322 321 323 323 323 326 330 330 330 330
300 298 297 299 300 301 304 302 302 305 301 297 298 302 304 305 301 293 291 293 291 289 288 287 287 287 286 286 285 285 285 286 288 289 291 291 292 293 293 294 295 296 296 297 298 299 300 301 302 303 303 304 305 305 306 306 306 307 309 310 311 312 314 315 318 320 322 322 319 318 319 320 320 319 321 323 322 322 325 326 323 321 320 319 319 320 321 322 322 322 320 319 321 324 325 326 327
299 297 296 297 297 300 303 301 302 302 299 300 302 299 298 306 305 294 293 296 292 289 287 286 286 285 284 284 283 283 283 284 286 288 289 289 290 291 291 292 293 294 295 296 297 297 298 299 300 301 302 303 303 304 304 304 304 305 306 307 308 309 310 311 313 315 317 319 317 315 317 319 319 319 320 321 321 320 322 325 325 324 323 320 320 319 319 321 322 320 318 318 318 319 319 320 320
296 295 296 296 296 298 300 301 303 302 300 301 302 299 298 307 306 295 294 297 292 289 287 285 285 283 282 282 281 282 283 284 286 286 287 288 288 290 290 292 293 293 294 294 295 295 296 297 298 299 300 301 301 302 302 302 302 302 303 304 304 305 305 306 307 309 310 311 311 311 313 316 317 318 319 319 320 320 321 321 323 325 325 323 322 321 321 321 320 319 318 317 317 318 318 317 317
296 297 299 299 299 300 302 303 303 302 300 299 301 300 298 303 303 294 293 294 290 289 286 284 283 282 281 280 279 280 282 283 284 285 286 287 288 289 290 291 292 292 293 294 294 294 295 296 296 297 298 298 299 300 300 301 301 301 302 303 303 303 303 303 303 304 305 306 307 308 309 312 314 317 318 318 319 320 320 320 321 323 323 323 324 323 324 323 321 319 318 317 317 318 317 316 316
298 304 303 301 301 302 304 304 301 300 301 299 298 297 296 300 299 291 289 288 287 287 285 282 282 281 280 279 278 279 280 281 283 284 285 286 288 288 289 290 291 292 292 293 293 293 294 294 295 295 296 297 297 298 299 300 301 302 302 303 303 303 303 303 303 303 303 304 304 305 305 307 309 312 315 317 319 320 319 320 320 319 320 322 325 325 326 326 323 319 318 317 317 317 316 316 316
300 304 303 300 299 300 301 301 300 299 298 295 293 295 297 298 294 289 287 285 284 284 283 281 281 280 279 278 277 278 279 280 281 282 284 285 286 286 287 288 288 290 290 291 291 292 292 293 293 294 295 295 296 296 297 298 300 301 302 302 303 304 304 304 304 303 304 304 304 304 304 304 305 306 309 312 316 318 319 319 318 318 319 320 322 323 325 327 324 320 319 318 316 316 315 316 316
299 301 302 300 299 299 300 299 298 299 298 293 292 296 299 298 291 286 285 284 283 282 281 281 280 279 279 278 277 277 278 279 280 281 282 283 283 284 285 285 286 287 287 288 289 290 291 291 292 293 293 294 295 295 296 297 298 299 300 301 302 302 303 304 304 303 303 304 304 304 304 304 304 304 305 306 309 312 315 317 318 318 318 318 320 321 323 326 325 322 321 320 318 318 317 316 316
298 300 301 299 300 301 299 299 300 299 297 294 293 296 300 299 291 285 284 283 282 282 281 280 280 279 278 277 277 277 277 278 279 280 280 281 282 283 283 284 284 285 285 286 287 287 288 289 290 291 292 293 294 294 295 296 296 297 298 299 300 301 302 302 303 303 303 303 303 304 304 305 305 305 304 304 305 307 309 312 315 317 318 318 319 319 321 324 325 323 323 322 320 319 318 317 315
298 298 299 298 300 301 298 296 298 297 297 296 295 295 292 290 286 283 283 282 281 282 281 280 279 278 278 277 276 276 277 277 278 279 280 280 281 282 282 283 283 284 284 285 285 286 286 287 288 289 290 291 292 293 294 295 295 296 296 297 298 299 300 301 301 302 302 303 303 303 304 304 304 304 304 304 304 305 306 308 310 313 316 318 319 320 322 323 324 324 324 323 321 320 319 318 317
298 297 299 296 296 300 298 294 292 294 296 296 295 294 288 286 286 284 282 282 281 281 280 279 279 278 277 277 276 276 276 277 278 278 279 280 281 281 281 282 282 283 283 284 284 285 285 286 286 287 288 289 290 291 292 293 294 295 295 296 297 297 298 299 300 300 301 302 302 303 303 303 304 304 304 304 304 304 305 307 308 310 313 316 318 320 322 322 322 322 323 323 322 321 321 320 319
298 298 298 294 293 298 299 297 296 295 295 295 295 295 291 291 291 285 282 283 281 280 280 279 279 278 277 276 275 275 276 277 278 278 279 279 280 281 281 281 282 282 282 283 283 284 284 285 285 286 286 287 288 289 290 291 292 294 294 295 296 296 297 298 298 299 300 301 301 302 302 303 303 303 303 304 304 305 305 305 306 308 310 313 316 318 320 320 321 321 322 322 321 321 321 321 320
294 295 295 295 297 299 297 297 298 296 296 296 296 295 293 293 291 284 282 283 281 280 279 278 278 277 277 276 275 275 276 277 278 278 279 279 279 280 280 281 281 282 282 282 283 283 284 284 284 285 285 286 286 287 288 289 290 291 293 294 294 295 296 296 297 298 299 300 301 301 302 302 303 303 304 304 305 305 305 305 306 308 309 311 313 315 317 318 319 320 321 321 321 321 321 321 320
292 292 294 295 296 298 296 296 297 297 298 296 296 297 294 290 287 283 283 283 280 280 279 278 278 277 276 275 274 274 275 276 277 278 278 279 279 279 280 280 281 281 282 282 282 283 283 283 284 284 285 285 285 286 287 287 288 289 291 292 293 294 295 296 296 297 298 299 300 301 301 302 303 303 304 304 304 305 305 307 309 310 311 312 312 313 315 316 317 318 319 320 321 321 321 320 320
290 292 295 294 293 295 295 295 296 297 299 298 297 297 292 286 284 283 282 281 279 279 278 277 277 276 275 275 274 274 274 275 277 277 278 278 279 279 280 280 280 281 281 281 282 282 282 283 283 283 284 284 285 285 286 286 287 287 289 290 291 293 294 295 296 296 297 298 299 300 300 301 302 303 303 303 304 304 305 307 309 310 311 312 312 312 313 314 315 316 317 318 319 319 319 319 319
286 288 289 290 290 292 294 295 293 293 296 297 297 296 290 283 282 281 280 280 279 278 278 277 276 275 275 274 273 273 273 274 276 276 277 278 278 279 279 280 280 280 281 281 281 282 282 282 282 283 283 283 284 284 285 285 286 286 287 288 290 291 292 294 295 296 296 297 298 299 299 300 301 302 303 303 303 304 305 306 307 309 310 311 311 311 312 312 313 314 314 315 316 317 317 317 317
Wind_Speed
8 11 14 17 22 24 22 17 5 1 1 1 3 2 4 7 4 4 5 3 4 3 1 5 7 7 5 3 3 3 3 2 2 2 3 8 1 17 24 27 28 30 35 34 30 29 28 26 26 26 24 22 21 20 19 17 15 14 12 10 8 7 8 8 8 10 11 9 8 10 10 8 12 16 18 18 19 21 21 21 21 20 18 18 20 20 19 18 16 14 13 11 10 10 10 7 6
13 16 20 22 25 20 13 6 1 2 2 3 3 4 3 5 5 6 7 4 4 2 3 6 4 5 6 5 3 1 2 3 4 6 9 7 8 19 22 27 28 30 34 33 30 28 28 26 26 26 24 23 21 20 19 17 16 15 13 10 8 7 8 8 8 10 11 10 8 8 10 8 8 12 15 17 20 22 20 20 21 20 17 18 21 20 19 17 15 14 12 11 11 10 9 6 6
18 22 24 25 22 12 7 2 0 4 3 5 4 2 5 6 7 7 7 6 5 2 4 2 2 1 1 3 2 2 1 4 7 7 6 3 14 18 19 26 28 28 31 32 30 28 27 26 25 25 24 23 21 20 19 18 17 15 13 11 9 8 8 8 8 10 11 10 9 8 10 9 7 8 12 15 18 19 19 20 20 19 18 20 21 20 19 16 14 13 12 10 10 10 8 6 8
23 24 24 22 14 5 5 1 1 4 5 5 3 3 5 7 7 6 7 6 4 5 5 3 3 2 4 4 1 1 2 4 7 6 1 9 13 15 18 26 28 27 29 31 29 27 27 25 25 24 24 23 21 20 19 19 18 17 15 12 10 9 8 8 9 10 11 11 10 9 11 11 8 8 13 16 17 17 18 19 19 18 19 21 21 20 17 15 15 13 12 11 10 10 8 7 9
24 24 21 16 7 2 2 1 1 3 5 3 1 3 5 6 8 7 8 6 3 7 7 4 3 3 5 5 3 1 3 4 4 2 4 7 10 13 20 27 28 27 27 29 29 27 27 26 25 24 25 24 22 21 20 20 19 18 16 13 11 10 8 8 8 10 11 11 11 11 12 12 11 12 15 16 16 17 17 18 19 20 20 21 20 18 17 16 15 13 12 12 11 11 8 7 9
23 21 17 10 3 1 2 2 3 4 3 2 0 2 5 5 8 7 7 6 2 6 8 6 3 4 5 5 5 5 5 3 3 2 4 4 8 13 21 27 27 26 25 27 27 26 27 27 25 24 25 24 22 21 20 20 19 18 17 15 13 12 10 8 8 10 12 11 12 13 14 14 14 16 18 18 17 16 18 20 20 20 19 19 18 17 17 16 15 14 12 12 12 10 9 8 9
22 17 11 6 1 1 1 3 3 3 2 2 1 3 5 6 9 8 5 4 1 2 7 6 6 6 3 2 4 6 8 4 3 2 4 5 11 12 16 22 25 25 24 27 26 24 26 27 26 25 25 24 23 22 21 20 19 18 17 16 14 13 11 10 9 9 11 12 12 13 15 16 16 17 18 18 17 17 19 20 20 19 18 18 17 16 16 15 15 15 14 14 13 11 10 8 8
21 13 6 3 1 0 1 3 2 2 2 0 2 2 5 9 13 9 3 2 2 2 5 6 8 6 1 2 3 5 9 7 4 3 4 7 11 12 11 16 23 25 24 26 26 24 25 27 27 26 25 24 24 23 23 22 20 19 18 16 15 14 13 12 11 10 10 12 12 12 14 17 17 17 18 19 18 18 19 18 18 18 17 17 17 15 14 13 15 15 15 15 13 12 11 9 8
19 9 4 2 1 2 2 2 2 2 2 1 1 1 6 12 14 9 4 2 2 3 3 6 7 5 2 4 3 4 7 8 5 3 4 8 11 14 11 13 19 23 26 24 24 25 26 27 27 26 26 24 24 23 24 23 21 20 19 17 16 15 14 13 13 11 10 11 12 13 14 16 17 16 16 17 17 18 18 18 17 17 17 16 15 14 13 12 13 15 15 14 13 12 11 10 9
15 6 3 1 1 3 3 2 2 2 2 2 2 3 8 13 13 9 6 3 3 2 1 6 5 5 5 4 3 3 4 5 5 3 4 8 12 15 12 12 14 18 26 25 23 24 25 27 27 27 26 25 24 24 24 23 22 21 20 19 17 16 16 15 14 13 11 10 11 13 14 14 16 16 15 15 16 17 16 17 17 16 16 15 14 13 12 11 11 13 14 15 13 13 12 11 9
8 3 3 2 2 4 4 3 3 3 2 1 1 5 9 14 12 8 7 5 6 4 2 3 3 7 7 4 4 1 4 2 4 4 5 7 10 14 14 12 13 14 20 24 23 23 23 25 26 26 25 25 25 24 25 24 23 22 21 20 18 18 17 16 16 14 13 11 10 11 13 14 15 15 15 15 15 14 13 15 16 15 15 14 13 12 11 10 10 10 13 16 14 13 13 12 11
4 2 3 2 3 3 2 2 4 3 3 1 2 6 12 15 11 6 7 7 9 6 6 4 3 9 5 2 6 3 4 2 3 4 5 6 8 12 15 13 14 14 15 17 20 23 23 24 25 26 25 25 26 25 25 25 25 23 22 21 20 19 18 17 17 16 15 13 12 11 12 14 14 13 13 14 14 13 13 14 14 14 14 13 12 11 10 9 9 9 10 14 14 14 14 14 12
4 1 2 2 2 2 1 1 3 2 3 2 3 7 14 13 10 11 11 9 10 7 6 6 6 9 3 3 8 6 5 4 2 3 5 6 6 9 13 13 16 17 16 13 13 20 24 24 25 26 26 25 25 26 26 26 25 24 24 22 21 20 19 18 18 17 16 15 14 12 12 13 14 14 12 12 12 12 12 13 14 13 12 12 11 10 10 9 9 9 9 10 12 14 14 13 12
6 1 2 1 1 2 3 1 1 1 3 3 4 9 16 12 11 16 14 8 9 10 8 9 7 5 4 4 6 7 7 4 4 3 4 7 6 8 11 13 16 18 17 15 12 14 20 23 25 25 26 26 25 26 27 26 26 25 24 24 22 21 20 19 19 18 18 16 16 15 14 13 12 13 13 12 11 11 11 12 13 13 13 12 12 11 11 10 10 10 10 9 10 13 14 13 13
10 2 1 1 0 2 3 3 2 3 3 2 7 13 16 13 13 15 15 10 9 14 11 11 10 3 5 6 5 9 8 6 6 5 5 7 7 10 12 12 16 18 17 16 13 10 14 21 25 24 25 26 27 28 28 27 26 25 24 24 23 22 21 20 19 19 18 17 17 16 16 15 14 12 12 12 11 10 10 10 11 12 13 13 14 14 14 13 13 12 11 10 10 11 13 14 14
12 2 1 3 2 2 2 3 3 3 4 1 7 15 12 10 13 12 15 14 8 13 13 11 12 4 7 11 7 8 7 6 8 7 5 5 6 10 13 12 17 20 19 18 13 9 10 17 23 25 26 24 25 28 28 27 26 26 25 25 24 24 23 21 20 20 19 18 17 17 17 17 16 14 12 12 11 10 9 9 10 10 11 12 13 14 16 17 17 16 14 13 12 11 12 14 14
11 3 1 3 3 3 2 4 3 2 3 2 4 14 10 5 10 11 12 15 10 11 15 13 13 9 9 12 8 6 6 4 6 9 7 4 4 8 11 13 18 21 22 21 17 12 10 16 21 25 26 25 25 25 27 28 27 27 27 26 25 25 24 23 22 20 20 19 18 18 17 17 17 16 14 13 12 11 10 9 9 8 9 10 10 12 14 17 19 19 18 15 15 15 15 14 13
8 2 3 4 3 3 2 3 2 1 1 1 4 11 9 3 8 11 7 11 12 10 14 16 16 14 11 11 11 8 7 5 2 4 6 6 3 3 9 12 18 22 23 21 18 15 12 14 19 24 26 26 25 26 27 29 28 28 28 28 28 27 26 25 24 22 21 20 19 19 17 17 17 17 16 15 14 12 11 10 8 7 7 7 7 8 10 13 16 19 21 20 19 20 19 17 15
7 2 2 4 3 2 1 1 1 1 2 2 4 9 8 4 7 12 6 7 12 10 11 14 16 19 18 15 14 13 11 9 6 3 2 4 5 3 2 8 13 17 18 18 18 16 13 13 14 20 25 25 24 25 26 28 30 30 28 28 28 28 27 26 26 24 23 22 20 19 18 17 17 16 16 15 15 13 12 11 9 8 7 6 5 6 7 8 11 14 19 23 24 24 22 21 19
7 4 3 4 3 2 2 1 1 3 6 3 3 7 7 6 8 11 5 4 8 9 10 12 16 23 24 21 18 18 16 15 13 10 10 9 7 4 4 4 5 8 10 14 18 18 17 15 12 14 19 21 21 19 19 21 26 29 29 28 28 28 28 27 27 26 26 25 23 21 20 18 17 17 16 15 15 14 13 12 11 10 8 7 5 4 5 5 7 9 13 20 24 26 25 24 23
5 5 2 1 1 1 4 2 2 5 7 5 3 4 5 7 9 11 6 3 4 9 17 19 21 26 25 25 22 21 21 20 20 18 18 18 15 10 7 6 5 5 6 8 14 16 16 18 16 14 14 14 15 16 17 18 20 24 27 27 27 27 27 27 27 26 27 27 25 24 22 21 19 17 17 16 16 16 15 14 13 12 10 8 7 5 4 4 5 6 7 11 17 23 26 26 25
3 2 1 0 1 1 3 4 4 6 5 5 4 3 5 6 8 11 9 5 3 8 17 22 24 24 22 24 23 22 22 22 23 24 23 23 22 19 14 8 5 4 5 7 9 12 11 15 20 18 15 13 13 14 17 19 20 23 24 25 27 27 27 26 25 25 26 27 27 27 25 23 21 20 19 18 17 17 17 16 15 14 12 11 9 8 7 6 5 5 5 6 9 15 20 24 25
4 2 2 1 1 2 5 6 7 7 3 4 4 4 6 7 4 7 10 9 4 1 7 13 18 20 18 19 22 22 23 23 24 25 26 25 25 25 22 16 9 5 5 7 9 10 10 11 19 21 17 16 15 15 17 19 22 25 25 24 25 25 25 24 23 24 25 25 26 28 29 27 24 22 21 20 20 19 19 18 17 16 15 13 12 11 9 8 8 7 5 5 7 10 14 17 21
5 2 1 2 2 4 8 9 8 6 4 5 4 4 4 6 3 1 9 17 10 2 1 1 6 12 13 13 16 19 20 21 21 21 23 24 24 24 24 20 16 11 7 7 9 11 11 8 11 18 19 18 16 17 18 19 21 26 27 26 26 25 24 24 24 25 25 25 25 26 28 29 27 24 23 23 22 22 21 20 19 18 17 16 14 13 12 11 10 9 7 6 7 8 10 13 15
4 3 2 1 3 3 6 7 6 4 3 4 3 3 1 3 2 1 10 18 14 9 6 3 2 5 10 12 12 12 12 12 12 13 16 20 22 22 23 22 20 19 16 12 10 11 11 9 6 10 15 17 18 18 19 19 21 24 26 26 27 27 25 24 24 25 25 25 25 25 24 25 25 24 24 24 24 24 24 23 21 20 19 18 17 15 14 13 12 11 10 8 8 8 8 10 12
5 6 5 2 3 4 4 3 2 2 2 1 1 2 2 1 1 4 13 15 12 13 11 11 9 5 6 11 12 11 10 9 7 7 8 10 15 18 19 21 22 23 23 19 13 10 11 9 6 4 8 13 18 21 19 18 20 23 25 25 26 25 25 25 25 26 27 26 26 26 25 25 24 24 25 24 25 25 25 25 24 23 22 20 19 18 16 16 15 14 13 10 9 9 9 10 11
3 6 7 6 6 5 3 2 2 1 2 2 2 3 2 0 1 4 9 8 7 10 12 14 13 8 4 6 9 9 9 8 6 5 4 4 7 9 12 14 17 19 21 20 15 12 11 10 8 7 6 8 12 18 20 19 19 20 22 24 25 24 24 25 26 28 29 28 28 28 27 27 27 27 27 27 26 26 26 26 26 26 25 23 22 21 19 18 17 17 15 13 12 10 10 10 11
3 2 3 6 6 7 5 3 3 2 2 3 1 3 4 1 1 6 7 5 4 6 9 12 12 11 9 7 7 8 7 7 6 5 3 4 6 9 11 12 14 15 17 17 15 14 13 11 9 8 7 4 5 9 13 15 18 20 21 23 24 25 26 26 27 29 29 29 29 29 28 29 30 30 30 30 29 28 27 26 26 27 26 25 24 23 22 21 20 19 18 17 15 13 12 11 11
3 2 2 5 5 6 7 4 4 4 2 1 2 4 6 3 4 7 7 6 7 9 8 8 9 11 13 12 9 8 7 7 6 4 3 6 7 9 11 11 12 14 15 16 16 16 16 13 11 11 9 6 5 4 4 5 9 15 20 23 25 26 27 28 29 29 29 29 29 29 29 29 29 30 31 32 31 31 30 29 28 27 26 25 24 26 26 24 23 22 21 20 19 16 13 12 12
2 2 1 3 5 5 7 4 5 5 3 3 4 3 5 5 7 4 5 9 9 11 10 8 6 6 11 13 11 8 7 5 3 2 5 6 6 7 8 9 10 12 12 14 16 16 18 16 13 13 14 13 10 7 5 4 3 6 10 15 19 25 30 29 29 29 29 30 30 30 30 29 28 28 30 31 32 32 32 32 30 28 26 25 24 27 29 27 26 24 23 23 22 19 15 13 13
2 1 0 1 1 5 6 2 7 7 4 6 7 4 6 5 7 2 4 9 10 11 10 8 6 4 5 8 10 8 5 2 2 5 6 8 7 5 5 6 8 10 11 11 12 14 20 19 14 14 16 15 15 13 9 6 5 6 6 6 8 16 28 32 30 29 29 30 31 30 30 30 29 28 28 29 31 32 33 33 32 30 28 26 26 27 26 25 26 27 27 26 25 21 16 15 14
1 1 1 1 3 5 7 1 8 8 4 6 8 4 7 6 7 5 6 7 9 13 10 7 6 4 2 2 3 4 5 6 8 8 8 8 9 9 7 4 3 6 9 9 9 11 20 21 16 13 14 14 14 14 12 10 7 6 6 5 5 6 14 24 28 30 30 31 31 31 32 31 30 30 30 31 31 33 34 35 34 32 30 29 29 28 26 24 26 28 29 30 28 23 18 17 16
2 1 3 2 3 3 5 3 6 5 2 4 6 4 4 2 2 2 4 3 2 7 8 5 4 4 4 3 5 7 9 10 11 9 8 7 7 8 8 7 7 4 3 4 5 7 14 20 19 15 12 12 14 13 13 12 10 8 6 5 5 5 6 9 14 22 28 31 32 32 31 29 28 28 29 31 33 34 36 36 35 33 32 31 30 29 28 26 27 27 28 32 29 22 19 18 17
1 1 3 3 3 3 3 4 3 2 3 4 6 6 6 5 2 4 9 7 4 1 2 2 1 3 5 4 7 11 12 12 13 10 7 5 4 4 4 4 5 4 3 1 2 3 6 11 15 15 13 13 15 15 14 13 12 11 9 7 7 7 7 7 7 11 18 23 27 29 30 28 25 24 25 27 29 31 34 36 35 33 31 31 31 29 28 27 27 27 28 31 30 23 19 20 19
6 6 4 3 2 3 4 3 2 4 3 5 5 7 10 10 8 3 5 8 8 6 3 4 8 10 9 9 12 14 13 14 16 13 9 6 4 4 3 2 2 1 1 1 1 1 3 4 5 7 8 10 13 15 15 15 16 15 12 9 9 9 9 9 7 7 9 13 17 20 25 28 24 22 22 23 25 29 32 36 36 33 31 30 30 27 27 27 28 28 29 30 30 24 21 21 20
9 7 4 4 3 4 4 4 4 4 4 5 8 7 10 12 11 6 4 6 8 9 9 13 15 15 14 13 14 15 15 17 18 14 11 8 6 5 4 2 1 1 2 0 0 1 2 3 3 3 2 5 9 13 16 15 14 15 14 12 11 11 9 7 6 5 5 8 8 9 16 24 25 24 22 19 20 23 26 29 29 28 28 28 27 26 26 26 28 29 30 32 33 27 22 21 20
6 5 4 5 5 5 4 3 5 1 4 5 7 6 8 11 10 5 4 5 8 12 15 18 18 17 17 16 17 17 17 17 14 11 11 10 8 6 4 3 2 2 3 3 3 1 2 3 3 3 2 3 6 11 15 15 11 11 13 15 14 11 10 8 6 6 6 6 5 4 9 16 21 22 22 20 17 16 15 17 18 21 24 25 25 25 25 24 28 29 31 34 33 27 22 21 21
4 5 5 5 5 5 5 3 4 1 3 3 2 5 10 10 8 5 2 4 8 12 13 15 17 20 20 19 19 19 17 15 12 11 12 11 10 9 7 6 5 5 5 4 4 3 2 3 2 1 2 3 5 7 11 13 13 13 13 14 16 14 12 11 8 6 6 6 6 5 6 11 13 13 15 18 18 16 16 16 17 19 22 23 24 25 25 25 27 28 29 31 30 29 25 23 23
4 2 4 3 4 3 4 2 3 1 3 3 2 4 8 9 7 4 4 6 10 16 18 18 20 22 22 21 20 20 19 19 17 16 16 16 14 12 11 11 11 11 11 9 7 5 4 3 2 1 1 3 4 5 6 8 11 13 13 14 15 15 14 14 11 7 6 6 6 8 9 11 11 10 11 13 12 13 14 14 16 19 21 24 25 26 27 26 27 27 26 27 30 32 28 25 26
3 3 4 3 2 2 3 3 1 2 0 1 3 3 6 6 3 4 8 12 16 20 24 25 24 22 21 22 23 23 24 24 23 22 21 20 18 16 15 15 14 12 11 11 10 8 6 6 4 2 0 3 3 3 4 5 7 10 12 13 13 13 14 15 14 12 10 9 8 8 10 11 11 11 12 13 12 11 11 11 13 14 17 21 25 29 29 26 25 25 26 27 30 33 31 29 29
4 4 5 3 3 5 3 2 1 2 1 1 3 2 5 5 1 3 6 13 16 18 22 25 24 21 22 24 26 27 27 26 26 25 24 24 23 21 20 18 16 15 13 13 14 12 10 9 7 5 3 0 2 2 3 4 5 7 9 12 11 9 11 14 16 16 15 15 13 12 12 12 13 13 14 13 12 13 14 15 16 14 15 16 18 24 27 25 24 26 27 28 31 34 33 32 31
4 5 8 6 7 7 3 3 3 3 2 2 2 0 4 5 1 2 1 7 11 14 17 19 20 20 21 24 25 26 27 26 26 26 25 25 25 23 22 20 19 19 19 17 16 15 12 10 9 7 5 3 2 1 1 2 3 3 5 9 11 9 7 8 10 13 15 15 16 16 15 14 14 15 15 16 14 14 15 17 17 16 16 15 12 15 18 18 19 20 21 23 29 36 37 35 33
3 4 7 8 6 7 7 6 4 2 4 2 2 4 4 5 4 2 2 7 9 11 14 15 17 18 19 19 20 23 26 25 25 26 25 25 25 24 23 22 21 21 20 18 16 14 12 10 9 7 7 6 4 2 0 1 1 1 2 5 9 10 8 6 6 8 10 12 16 19 18 16 16 16 16 17 17 17 18 17 16 15 15 16 14 14 15 14 14 13 14 16 21 30 35 36 35
2 2 5 8 7 7 8 8 5 2 3 2 2 3 2 3 2 0 5 9 9 10 12 13 16 17 17 18 18 21 24 24 24 25 26 27 26 26 25 23 22 21 18 16 14 13 11 10 9 8 7 6 5 4 2 1 1 0 1 3 5 7 9 9 8 8 9 11 15 17 17 15 16 18 18 17 19 20 20 18 16 16 16 16 16 16 16 15 14 12 12 14 15 19 21 21 22
2 1 4 6 5 6 5 6 4 1 1 2 4 2 3 5 4 1 4 7 7 9 10 10 13 16 16 18 19 21 23 24 26 27 27 28 26 26 25 23 21 19 16 15 14 13 12 10 9 8 6 6 6 5 3 2 2 2 1 2 4 5 7 9 10 11 13 14 16 17 17 16 16 19 19 18 20 21 21 19 18 19 19 18 17 18 17 16 17 15 12 13 14 14 14 14 13
2 4 6 6 6 5 4 4 4 3 1 5 7 5 3 4 4 1 3 5 5 5 7 8 11 15 15 17 21 25 27 28 28 28 28 27 26 25 23 21 20 19 17 15 14 13 11 10 9 7 6 6 6 5 4 3 2 2 2 2 4 6 7 9 10 11 13 14 15 15 17 17 17 19 20 19 20 20 21 20 19 19 20 21 21 22 22 21 20 16 11 11 13 12 12 12 13
5 5 6 7 6 4 4 2 3 3 3 7 8 7 4 4 3 0 2 4 3 4 5 6 10 14 15 18 25 29 29 30 29 28 28 27 26 24 22 21 19 19 17 15 14 13 12 11 10 9 8 7 7 6 5 4 4 4 3 3 1 3 5 8 9 10 11 12 13 13 14 16 17 18 18 19 19 19 21 21 21 21 20 21 22 25 27 26 22 16 12 13 15 13 12 11 11
5 4 5 5 3 4 4 4 3 2 6 6 3 4 5 4 4 1 4 5 6 5 5 5 8 11 12 16 25 30 31 31 31 29 29 28 26 26 24 23 22 20 19 18 18 17 15 14 13 11 9 9 8 8 7 6 5 5 5 5 4 3 3 5 7 8 10 11 12 13 14 14 15 16 17 18 18 18 20 21 21 22 21 21 23 25 29 28 23 18 16 18 17 14 13 13 11
4 4 5 4 2 3 1 3 0 3 6 2 2 1 3 3 2 4 6 7 8 7 7 6 6 8 10 15 24 30 31 32 32 32 31 30 29 29 29 28 27 25 25 24 23 21 20 18 17 14 13 12 11 10 9 8 7 6 6 5 4 4 3 3 5 7 8 10 11 12 13 14 15 16 16 18 18 18 20 20 21 22 22 21 19 20 24 28 26 20 20 20 17 15 14 14 13
3 4 5 4 2 2 3 4 1 4 5 2 2 1 1 3 1 6 7 8 9 8 9 8 7 8 10 15 23 29 31 32 32 32 32 32 32 31 31 31 31 30 30 29 28 26 24 23 20 18 17 15 13 12 11 9 8 8 7 7 6 5 4 4 5 7 8 9 10 11 12 13 14 15 16 16 17 19 20 20 21 21 21 20 18 16 18 24 28 24 22 23 19 16 15 16 18
3 3 5 4 5 4 5 4 3 4 1 2 2 1 2 3 3 7 9 10 9 9 9 8 8 9 11 16 23 29 30 31 32 31 32 32 31 31 31 31 31 31 31 30 30 29 28 27 25 23 21 18 16 14 13 11 10 9 9 8 7 7 6 5 5 6 8 9 10 11 11 12 14 15 16 16 16 18 19 20 21 22 21 19 18 17 16 21 27 28 27 25 20 18 18 18 18
2 2 4 2 5 4 2 4 4 3 1 1 2 1 1 2 5 6 9 9 8 8 7 7 8 8 11 17 23 27 28 29 31 30 31 31 30 31 31 31 31 30 30 31 30 30 29 29 28 27 25 23 20 17 15 14 13 12 11 10 8 8 8 7 7 6 8 9 9 10 11 13 14 15 17 17 17 17 18 19 20 21 21 20 18 17 16 19 25 30 31 27 22 21 21 21 20
0 2 3 2 2 6 3 2 1 3 1 3 3 2 1 3 3 4 7 6 6 5 5 7 8 9 11 15 20 24 26 27 29 29 30 30 30 30 30 30 31 30 30 30 30 29 29 29 29 28 27 26 24 22 19 17 15 13 12 11 10 10 9 9 9 9 9 9 9 10 11 13 14 15 16 17 18 18 17 18 19 19 20 20 19 18 17 16 19 24 29 27 24 25 24 23 23
3 2 3 1 1 4 3 2 2 2 4 4 2 5 5 4 3 6 9 7 5 5 4 6 7 10 12 14 17 22 24 25 26 28 28 29 29 29 29 30 30 29 30 29 29 28 28 28 28 28 28 27 27 26 24 22 19 16 14 14 13 13 12 11 11 11 11 11 11 11 11 12 13 14 15 15 16 16 17 18 18 18 18 18 19 19 18 17 17 20 24 25 25 26 26 26 25
3 2 1 2 2 1 2 3 1 2 5 5 3 3 4 4 4 8 11 10 8 5 4 5 7 9 10 12 15 20 22 24 25 26 27 28 28 28 28 28 28 28 28 28 28 28 28 28 28 28 28 28 27 27 26 25 24 21 19 17 16 15 14 13 12 12 11 12 12 12 12 12 12 13 13 14 14 14 15 16 16 16 16 16 17 17 17 17 17 18 21 23 24 25 26 27 26
3 2 3 3 2 3 2 3 2 3 5 6 5 3 1 1 3 9 11 9 9 6 5 5 6 8 8 10 13 18 21 23 24 25 26 27 27 27 27 27 27 27 27 27 27 27 27 28 28 27 27 26 27 27 26 26 27 25 23 20 18 16 15 14 14 14 13 13 12 12 12 12 12 13 13 14 14 14 14 14 14 13 13 13 14 15 15 15 17 19 21 22 24 25 26 26 27
4 4 3 3 2 1 1 1 2 4 3 4 5 4 1 2 2 8 11 10 8 7 6 5 5 7 7 9 12 16 19 22 24 24 25 25 25 26 26 26 26 26 26 26 26 27 27 27 28 28 28 28 27 27 27 28 28 27 26 25 22 19 17 16 15 15 15 14 13 13 13 12 12 12 13 14 13 13 13 13 14 13 13 13 14 15 15 15 16 18 21 23 25 26 26 26 27
1 2 2 2 2 1 1 4 1 2 2 4 4 4 1 3 3 7 10 8 8 7 6 5 5 6 6 8 11 15 18 20 23 23 23 24 23 24 25 25 25 25 25 26 26 26 27 27 27 28 28 28 29 28 28 28 28 28 28 27 26 24 21 18 17 16 16 16 15 14 14 14 12 11 12 13 13 12 12 13 14 14 14 13 14 14 15 15 15 17 19 22 24 24 24 25 27
Wind_Direction
161 157 149 139 139 144 151 149 146 220 151 254 210 189 204 175 136 122 150 143 133 172 232 308 281 252 244 221 207 168 108 116 221 207 256 314 209 171 171 169 168 167 166 166 167 169 174 178 178 174 171 171 172 169 168 167 162 155 149 142 131 122 104 97 117 123 123 120 111 96 84 113 157 163 166 170 175 186 186 183 183 177 172 168 167 167 161 157 151 156 162 153 158 155 149 145 129
148 146 142 139 141 143 160 161 147 150 146 252 205 191 186 143 147 155 157 161 154 182 304 312 283 237 249 232 230 185 110 39 337 281 293 318 165 169 168 167 167 166 167 168 168 171 175 176 179 176 173 174 173 171 169 167 161 155 150 145 131 117 109 103 122 131 126 126 121 109 86 89 142 166 168 166 171 178 181 184 183 176 170 169 169 165 159 156 154 160 160 156 161 156 151 140 127
145 146 144 145 146 144 163 160 318 167 186 216 214 191 148 157 174 158 149 153 147 88 1 340 141 187 220 151 187 180 154 20 17 326 295 158 162 171 168 168 167 164 167 169 169 172 175 176 179 179 177 176 174 173 171 166 161 157 150 147 134 118 118 109 123 138 132 130 128 119 92 82 113 152 161 160 162 168 175 178 176 174 168 165 165 161 156 153 160 165 160 160 160 153 150 136 131
147 149 149 150 147 131 144 173 277 181 202 198 213 199 158 168 162 140 149 150 125 75 47 74 118 80 96 104 88 165 317 7 31 2 156 151 168 177 170 169 167 164 166 171 173 173 176 178 180 181 180 178 177 176 174 168 163 159 152 149 137 122 122 117 124 141 138 133 133 123 98 87 95 127 144 148 156 164 171 169 165 165 160 158 159 155 153 158 167 169 165 166 161 156 153 137 137
150 152 154 155 149 127 139 225 223 194 213 169 169 193 162 158 147 143 158 161 108 71 68 96 121 83 86 66 53 95 329 352 49 55 148 161 183 180 172 171 169 168 168 172 175 175 178 180 181 182 181 181 179 179 176 170 167 162 154 150 143 129 124 123 126 141 142 134 133 122 103 96 95 110 123 128 140 151 154 153 150 150 149 151 152 152 158 167 172 169 167 166 162 161 155 143 143
154 154 158 165 163 165 161 237 212 224 236 127 65 198 157 146 142 143 154 164 131 77 78 93 128 118 94 60 66 73 29 16 60 133 182 187 182 174 171 173 173 174 174 173 176 177 178 181 183 184 183 184 182 180 179 173 170 165 157 153 147 137 129 128 126 140 144 136 134 125 109 103 106 110 112 113 120 131 137 139 140 142 146 149 151 159 168 173 173 171 170 168 165 164 159 151 149
157 156 160 175 189 167 197 244 222 227 258 132 158 200 164 143 138 137 143 164 192 108 85 94 138 124 108 85 89 84 67 64 80 140 206 182 168 168 171 178 179 180 180 178 179 179 181 182 184 187 186 186 184 181 180 176 174 169 161 157 152 143 136 134 129 137 148 142 135 129 118 109 113 118 117 120 123 129 134 136 140 144 150 154 158 168 173 170 169 170 172 172 171 170 165 159 156
161 159 159 176 200 275 227 250 240 204 262 69 128 197 173 149 142 142 153 157 246 205 101 107 147 131 124 133 115 105 83 81 102 123 195 182 175 177 176 183 187 188 186 184 184 182 184 185 186 188 188 188 185 181 181 178 176 172 166 161 155 149 142 140 135 136 149 150 141 133 128 119 118 125 128 132 135 138 139 140 145 150 155 161 165 172 174 170 171 169 170 174 172 174 173 166 164
164 160 146 163 229 227 238 249 248 223 263 302 122 156 161 157 150 147 144 115 279 234 120 118 149 152 139 110 100 141 96 82 110 115 180 188 186 186 190 191 192 197 194 189 190 187 186 186 187 189 188 187 187 184 182 181 179 174 170 166 160 154 148 145 140 138 144 153 152 143 136 130 127 130 136 141 145 148 148 150 152 156 161 167 169 174 176 175 177 165 165 174 172 175 179 175 171
165 172 155 180 221 220 236 218 228 243 249 248 217 169 160 168 168 163 151 155 209 251 115 119 131 144 133 100 77 180 146 76 109 135 186 199 200 188 189 193 190 198 200 196 193 192 191 188 187 191 191 188 189 188 185 184 182 178 174 170 166 158 154 151 147 143 141 146 155 154 147 141 139 140 143 149 155 157 157 158 159 160 164 170 171 174 174 172 177 166 166 176 176 179 183 181 178
167 197 173 196 212 221 225 211 234 254 261 278 237 185 176 174 170 166 155 166 185 230 253 132 120 132 118 107 92 147 192 98 105 162 190 208 221 187 173 188 191 193 201 202 198 197 197 193 191 193 195 191 191 192 189 186 183 181 178 175 171 164 160 158 154 151 146 144 146 153 154 150 149 151 153 158 167 172 169 165 165 166 168 173 173 175 176 171 178 181 181 180 179 186 190 190 186
180 203 170 218 212 224 218 224 242 258 303 297 222 199 186 172 164 169 165 173 175 200 242 229 178 142 104 111 128 93 186 184 103 176 191 200 231 191 172 182 193 189 189 200 202 204 202 199 198 196 198 196 192 193 194 190 185 184 182 180 176 171 167 164 160 157 154 151 147 146 150 150 150 153 155 160 172 183 184 176 172 173 175 178 181 183 187 184 181 187 195 189 184 189 193 193 191
199 160 164 239 195 171 169 255 251 251 307 237 211 204 184 172 179 188 175 179 176 178 223 218 171 149 113 122 149 124 145 188 129 181 200 187 214 195 179 182 195 193 184 186 194 208 208 204 204 199 200 200 194 195 196 193 189 187 185 184 182 177 174 172 167 164 161 158 154 152 148 148 148 147 149 154 164 177 185 186 184 186 187 190 193 195 198 199 194 191 198 200 196 198 195 189 194
201 259 200 264 157 151 159 228 263 192 268 213 183 185 179 186 202 192 175 174 186 183 187 187 174 148 141 136 170 152 122 137 140 155 190 185 193 191 189 193 198 193 189 188 182 205 212 211 210 202 203 202 197 196 198 196 193 191 188 187 187 184 180 179 175 171 169 166 162 161 157 153 151 150 153 155 160 167 173 182 189 196 201 205 209 211 211 210 207 204 201 198 201 207 204 195 201
199 245 225 258 220 189 185 201 180 183 244 193 184 182 179 202 207 191 183 182 196 195 185 179 182 166 168 163 170 164 128 108 121 118 151 173 185 191 195 199 194 184 190 195 186 199 210 214 215 210 208 205 200 196 196 197 195 194 192 190 191 189 187 185 183 179 175 174 171 169 168 163 159 157 158 162 166 170 172 177 185 194 203 209 215 220 223 223 221 219 213 208 206 208 207 205 207
202 220 218 242 224 195 192 189 150 177 248 262 188 181 178 215 205 193 195 193 190 195 197 188 187 185 174 172 167 172 152 103 100 96 112 148 176 194 196 200 193 185 193 196 192 203 209 213 216 217 214 208 207 200 194 196 197 196 195 195 194 193 193 191 189 187 182 181 179 177 177 173 168 165 163 166 170 174 174 176 181 188 198 205 212 218 224 228 229 229 225 220 219 213 207 207 207
200 216 227 234 212 197 186 184 173 173 260 341 174 177 176 219 201 199 204 200 195 193 205 205 198 198 179 175 180 195 187 141 97 88 83 101 156 196 206 206 193 191 200 196 191 200 213 213 213 219 217 212 213 207 198 196 198 198 197 199 198 196 197 198 196 194 190 187 186 185 186 184 179 174 171 171 174 178 177 177 180 182 192 199 206 214 220 226 230 230 229 225 223 221 217 215 210
189 212 227 229 205 205 173 177 196 101 1 338 201 194 191 194 187 191 193 203 208 207 213 218 218 217 209 190 190 216 222 205 154 88 69 61 79 183 223 221 196 197 207 201 193 196 211 213 213 220 218 215 212 209 205 198 199 201 199 201 201 199 199 201 202 201 198 195 194 193 193 195 193 186 181 180 181 183 185 185 185 185 190 193 198 205 213 223 228 229 229 227 227 230 230 230 225
192 217 224 228 194 200 203 146 69 25 302 301 234 219 212 213 180 181 182 196 202 210 219 222 229 229 229 219 205 219 232 229 232 244 312 0 18 42 258 240 216 215 216 207 200 198 204 203 214 223 218 218 215 210 208 202 200 201 201 202 202 202 201 203 205 206 205 203 202 200 199 202 205 201 193 191 192 193 195 197 198 199 200 199 198 202 205 212 223 228 229 230 231 234 235 235 233
205 213 228 236 190 203 251 199 54 287 268 277 254 222 221 231 182 180 190 178 190 212 217 213 225 229 230 230 221 218 227 238 242 251 265 280 302 341 1 311 263 255 244 221 211 208 207 197 204 225 221 223 224 221 219 212 206 203 203 203 203 205 203 204 208 210 211 210 208 206 204 206 210 212 208 203 201 202 205 206 209 210 211 214 214 215 216 213 219 225 230 233 234 234 234 235 235
196 201 219 251 131 248 263 269 278 281 269 250 224 194 216 219 189 187 177 156 202 228 224 219 223 227 228 231 233 228 230 238 245 255 264 271 277 283 309 333 343 322 295 262 233 228 220 203 198 210 219 226 231 232 232 229 221 214 212 208 205 207 206 207 209 213 215 215 213 211 209 210 212 216 219 216 211 210 211 213 216 218 219 224 227 229 236 239 233 229 233 236 237 236 236 237 237
206 213 272 327 96 280 288 326 306 295 280 232 196 176 197 186 191 199 182 181 230 241 237 234 231 232 234 237 242 243 243 246 251 257 262 268 271 271 277 290 323 337 332 324 279 263 249 221 209 204 206 218 230 235 233 232 230 224 220 217 213 211 209 208 210 214 217 218 218 217 213 213 215 217 222 224 222 219 217 218 220 222 224 227 230 232 237 246 251 248 243 236 235 237 238 239 240
226 278 345 314 188 248 302 338 327 313 290 219 196 195 182 159 186 211 205 216 221 274 248 242 239 236 238 241 243 247 251 256 259 262 263 266 268 268 269 269 276 288 321 339 325 308 299 257 226 211 203 211 223 230 230 229 229 224 217 216 218 217 214 211 212 217 219 221 223 223 217 214 216 220 223 225 228 227 225 225 226 226 227 229 232 235 238 243 250 257 258 247 238 236 237 239 239
215 257 304 294 250 252 286 304 305 306 282 257 222 196 175 174 194 212 226 229 221 195 141 172 238 229 226 229 235 241 246 253 260 263 262 263 265 263 261 261 260 257 272 312 325 319 315 303 246 224 213 212 220 225 227 224 224 223 216 213 217 218 218 217 216 220 222 224 228 228 221 217 217 221 224 226 230 232 232 232 232 231 232 234 236 238 242 244 248 254 259 263 261 253 243 240 240
216 239 196 235 275 278 293 289 281 285 274 271 218 195 108 191 219 314 245 238 230 231 234 255 267 221 218 217 220 227 231 240 253 261 258 257 260 261 258 255 254 255 264 281 302 305 301 309 291 244 227 222 225 226 226 224 222 222 219 217 216 216 219 220 220 224 227 226 228 229 226 223 221 223 226 227 230 235 236 236 237 237 237 240 242 242 243 246 249 253 256 261 269 271 263 252 245
224 232 220 228 290 313 317 274 238 269 255 225 229 280 6 99 322 277 254 255 249 242 246 255 262 264 238 222 220 220 215 213 224 251 263 260 259 263 264 261 259 259 265 272 277 282 284 288 308 303 253 239 235 230 224 222 220 221 222 221 220 219 221 222 225 229 231 229 228 228 229 230 229 229 230 230 231 234 237 238 239 240 240 242 244 244 244 246 249 252 255 258 264 269 271 264 252
231 230 233 244 266 291 308 255 224 273 282 262 249 283 299 38 37 255 257 277 275 248 244 248 251 255 252 226 216 210 206 201 206 225 242 257 261 272 277 274 273 268 266 267 264 264 270 273 291 320 302 263 245 238 230 223 221 218 220 222 224 226 227 228 230 231 232 231 228 228 231 234 235 234 234 234 233 234 236 238 240 241 242 242 244 245 244 245 248 251 254 256 259 261 261 258 251
246 204 241 268 274 278 272 247 249 234 276 272 206 282 288 58 155 239 257 297 307 270 251 249 246 242 244 237 216 201 199 193 195 205 222 271 292 300 300 297 293 286 275 267 255 252 261 265 272 293 300 285 267 256 243 236 231 224 221 222 224 227 229 230 230 231 232 230 228 230 235 237 238 239 238 238 237 237 238 238 241 242 243 244 246 246 244 244 246 248 250 252 253 253 251 249 246
227 165 256 300 331 288 246 214 214 185 226 238 93 307 275 223 222 235 247 261 272 272 264 258 250 242 238 232 221 204 195 186 186 213 292 303 301 302 303 306 302 295 289 280 262 246 251 258 256 263 272 274 290 297 289 276 246 235 231 228 228 229 229 231 231 231 232 232 232 234 236 238 239 242 244 243 241 240 241 241 242 243 243 246 248 248 244 239 241 245 245 247 250 250 249 245 242
159 126 190 288 352 302 242 194 169 162 202 172 122 281 256 248 258 221 233 249 253 257 251 249 253 245 232 224 220 209 198 199 212 306 343 340 321 302 292 289 287 289 291 288 277 253 243 248 246 251 262 267 272 277 288 315 306 273 255 241 238 236 232 232 233 234 235 235 236 235 236 238 241 243 246 247 246 244 242 242 243 244 245 248 251 253 250 242 237 241 243 245 248 249 248 242 237
142 106 121 213 203 275 277 202 159 164 213 172 140 243 248 261 272 259 277 262 249 247 238 232 243 251 236 224 221 219 204 193 37 33 23 20 12 352 309 276 262 268 272 278 283 255 237 241 244 245 248 254 262 263 260 275 297 303 297 283 271 248 235 233 235 236 237 238 239 238 236 238 241 244 245 246 248 248 246 243 242 242 244 247 251 257 260 253 246 242 239 241 243 244 243 234 226
84 180 257 233 184 264 305 282 179 183 212 174 150 233 266 267 267 287 309 283 252 241 231 229 243 229 180 136 165 168 128 85 63 59 49 45 43 37 29 3 304 270 260 259 270 248 233 238 244 247 242 242 253 253 248 255 274 289 293 292 305 281 243 235 236 235 238 241 241 241 239 238 241 244 247 247 246 247 248 248 245 243 243 244 248 254 259 262 261 253 241 237 235 234 236 228 219
356 188 213 224 185 247 308 298 221 199 151 189 196 224 274 264 240 14 26 12 255 231 232 244 261 222 176 119 94 96 83 65 56 58 56 55 51 40 39 32 25 11 309 256 262 253 236 236 241 250 254 252 252 243 237 243 252 259 264 260 264 282 266 249 241 237 239 241 240 242 240 238 240 244 248 249 250 249 246 246 247 246 247 248 249 253 257 262 267 266 253 243 235 231 232 228 220
263 223 216 228 185 184 259 291 259 184 144 209 224 229 239 226 203 60 53 48 55 71 265 273 42 109 133 108 69 58 52 42 32 31 33 33 34 31 33 31 31 35 31 37 248 257 241 239 243 250 258 261 259 246 229 227 232 239 237 230 240 263 271 271 260 243 243 245 245 245 243 240 240 244 248 246 246 251 248 243 243 244 247 251 253 254 257 263 269 272 264 247 235 231 228 223 223
193 199 204 219 203 201 235 264 212 150 166 203 205 231 245 251 261 288 26 31 36 32 22 50 54 60 66 56 45 40 40 39 31 24 19 10 358 354 358 3 356 356 30 48 102 192 203 211 226 242 249 251 254 247 233 223 218 220 223 224 236 247 254 260 260 252 249 254 259 258 253 246 238 242 253 249 238 238 243 244 244 244 245 248 251 252 256 265 270 271 266 246 229 228 227 222 228
192 192 173 170 192 234 237 255 255 166 150 207 204 219 243 250 261 273 315 356 13 8 24 45 44 45 46 41 38 39 43 44 39 35 33 28 18 7 3 22 13 235 211 214 95 143 154 155 153 160 197 235 244 241 238 232 214 207 215 224 233 238 240 246 254 263 247 242 262 286 272 253 239 241 250 256 250 238 238 244 245 243 245 246 247 251 256 264 268 267 268 252 228 223 225 224 232
163 162 175 190 194 242 251 250 290 199 154 230 217 220 248 251 260 276 303 334 6 11 26 41 44 45 44 44 45 49 53 50 47 45 46 46 46 48 56 84 108 181 190 200 197 146 103 134 153 153 164 236 253 248 244 242 221 204 217 222 221 228 236 236 235 255 250 231 244 292 285 256 241 243 243 241 249 251 245 244 243 240 242 245 248 255 258 262 267 265 266 256 232 221 226 226 229
103 157 193 217 204 236 255 228 311 314 177 261 208 211 251 257 264 277 343 20 29 32 37 38 46 54 51 51 52 56 59 54 53 52 52 56 56 64 76 90 104 102 100 130 154 127 119 158 156 155 205 237 259 265 254 247 232 216 221 223 221 224 230 234 231 242 246 236 238 234 254 259 252 259 253 239 237 241 243 245 249 247 247 250 253 257 258 259 263 261 263 259 237 225 229 230 231
94 129 164 222 222 239 275 254 326 8 185 270 158 187 250 261 265 302 31 70 63 57 63 55 53 57 50 49 50 53 57 53 55 56 58 62 63 70 78 83 89 86 89 99 110 118 129 139 116 81 265 266 269 274 263 254 241 226 223 224 229 232 232 234 233 235 245 246 241 233 240 254 262 273 271 264 255 242 236 237 246 253 256 258 255 254 255 257 259 257 256 253 239 232 233 232 234
156 133 150 220 218 186 260 243 311 17 125 220 151 190 271 279 295 32 50 78 75 62 67 63 58 59 53 54 54 54 57 55 57 60 61 66 67 71 74 77 82 85 92 92 90 95 97 95 84 75 20 282 275 276 268 258 248 234 229 227 233 242 241 241 244 244 252 255 245 241 245 247 258 267 268 279 287 276 262 247 252 264 268 264 256 252 253 254 255 251 247 244 240 239 238 237 238
217 191 184 195 182 192 229 197 128 16 338 105 98 7 309 285 238 101 58 68 65 50 56 55 50 55 57 60 59 58 58 57 58 59 60 64 65 66 69 72 78 79 81 80 76 74 74 80 77 76 87 125 235 252 268 260 253 240 232 228 230 238 238 240 248 250 252 256 253 250 250 246 252 263 269 278 284 283 281 271 268 276 277 275 266 256 254 256 256 250 244 242 243 242 240 240 240
238 226 203 187 182 186 166 134 100 57 285 255 109 264 296 304 319 152 1 54 56 41 47 46 38 43 49 52 53 55 58 58 59 58 59 63 64 66 68 70 74 73 71 70 71 71 71 76 76 76 83 89 119 193 243 263 260 244 230 224 224 231 230 224 233 242 248 254 256 254 250 246 248 255 263 268 269 273 280 278 275 272 266 270 272 260 257 263 265 259 253 256 257 251 242 240 242
232 238 199 174 157 154 147 147 127 130 234 276 113 182 256 316 10 40 67 74 65 45 46 44 38 38 41 43 42 46 52 55 58 59 59 61 62 64 64 63 65 65 65 66 69 72 73 74 74 71 70 73 73 73 120 266 247 203 187 199 217 233 242 230 213 222 235 243 248 248 248 246 246 249 254 257 258 261 266 271 276 272 261 257 257 255 257 265 271 271 270 275 274 259 243 238 241
225 254 173 156 146 154 165 162 156 197 224 335 20 151 214 282 302 190 105 81 57 42 42 39 38 37 38 37 34 39 46 50 53 56 57 57 59 59 58 58 59 60 61 63 66 68 67 67 67 66 65 68 66 58 34 332 333 27 159 177 204 225 239 244 237 233 235 238 241 242 244 243 239 243 247 249 251 256 261 262 264 268 265 258 253 250 253 257 258 261 274 283 284 274 260 249 247
267 280 126 133 135 145 155 148 148 350 60 271 277 156 173 260 269 260 108 84 54 44 40 34 34 32 31 31 34 44 51 53 56 58 58 57 57 57 56 57 58 57 57 58 58 57 58 59 61 63 65 68 67 60 46 15 352 341 297 232 223 227 236 245 246 248 249 248 244 238 239 237 231 235 241 244 245 249 256 258 258 262 262 260 255 250 247 245 244 250 265 276 278 281 284 281 280
199 125 93 77 68 75 82 111 121 46 45 227 228 176 176 267 278 307 81 75 66 62 51 39 35 34 32 35 45 55 59 61 61 61 60 58 57 57 57 58 58 55 54 53 53 51 51 54 54 55 53 54 57 57 54 38 18 355 312 281 256 251 252 253 253 257 258 258 253 243 239 237 230 227 230 234 237 241 247 252 255 259 261 263 259 253 247 239 242 251 257 265 272 274 278 287 290
145 111 75 63 45 40 49 51 88 75 264 238 216 185 181 256 268 273 54 48 72 107 78 46 38 39 40 45 52 57 58 59 60 60 62 60 59 59 58 58 56 54 51 49 48 44 42 44 44 46 47 47 48 49 54 50 46 44 38 37 339 279 269 265 266 269 270 271 268 261 253 247 240 233 228 228 230 234 238 242 248 253 260 266 263 260 255 244 244 253 255 266 274 270 269 281 287
101 89 84 81 10 11 29 356 49 154 243 259 247 189 164 225 255 82 69 53 63 91 87 64 50 42 37 42 50 54 54 55 56 57 57 57 58 58 56 55 53 51 48 44 41 37 35 35 34 37 41 44 45 45 48 49 50 52 51 49 41 13 324 289 279 280 281 281 278 274 270 264 257 250 243 237 233 232 234 235 240 243 248 256 259 264 260 244 239 249 251 256 263 263 268 273 269
62 86 97 98 358 13 9 282 249 221 248 286 313 169 131 227 233 101 89 73 69 78 83 82 72 51 33 37 47 51 52 52 52 52 52 52 52 51 51 50 49 49 47 44 42 38 34 32 28 28 29 29 32 36 38 41 39 39 39 35 31 24 3 323 298 289 288 288 286 281 278 276 271 264 256 250 245 241 240 239 240 241 243 249 257 272 264 239 230 243 246 240 243 251 254 251 248
115 132 124 133 140 121 224 238 258 261 265 295 278 137 129 260 129 108 104 91 87 87 84 82 75 59 42 40 46 49 49 50 50 49 49 48 48 47 47 46 46 46 45 43 43 41 37 34 31 29 27 23 22 24 26 30 31 30 27 21 12 1 347 329 309 299 296 294 292 288 285 282 278 274 267 259 253 249 248 248 247 247 246 247 253 268 268 243 228 232 237 231 235 244 234 227 237
187 162 132 153 170 170 211 216 212 235 268 332 284 170 201 234 93 103 110 101 100 95 85 77 64 53 44 42 44 46 46 47 48 49 48 47 46 46 45 44 43 43 41 40 40 39 38 37 33 30 28 24 20 18 17 19 22 22 19 12 2 350 339 329 317 306 301 297 294 289 288 285 281 278 273 268 261 254 251 251 252 253 251 250 250 251 261 255 238 233 233 230 237 246 233 226 233
247 123 112 183 193 156 166 193 180 168 108 342 255 205 199 123 85 100 113 108 108 99 78 63 49 38 41 40 40 43 43 44 45 46 47 47 46 44 43 42 41 40 39 37 35 35 35 35 35 33 32 29 24 20 16 15 17 16 14 9 360 350 337 323 311 304 300 297 295 291 288 286 284 281 278 275 271 263 256 253 252 254 253 253 253 251 259 264 253 242 230 225 240 251 241 236 235
227 115 168 233 164 112 114 233 50 76 210 238 173 154 121 120 120 140 138 126 117 102 68 57 45 35 40 38 36 39 40 42 42 42 43 44 45 43 41 40 38 37 36 34 33 32 30 30 30 30 31 31 30 26 19 14 12 12 13 11 6 357 346 334 322 316 312 302 296 290 287 286 284 282 280 278 278 274 267 261 256 255 254 251 251 252 257 264 262 250 231 225 241 251 248 248 245
102 175 212 251 64 93 112 223 5 39 242 253 178 165 170 176 168 152 162 160 130 106 69 58 43 37 40 34 33 36 37 40 41 41 41 41 41 40 39 37 36 35 34 32 30 29 28 27 25 25 25 26 27 27 25 19 12 9 10 10 10 4 357 348 335 325 319 311 304 296 291 289 286 284 281 278 279 277 273 270 266 263 260 256 252 251 254 257 262 262 251 245 249 250 250 253 249
113 225 263 86 173 221 131 177 199 215 234 261 253 193 182 202 178 157 171 164 136 118 79 61 40 36 35 27 28 33 35 37 38 38 37 37 36 35 33 32 31 31 30 28 26 24 24 23 22 22 21 21 21 21 23 23 19 15 13 11 9 5 1 354 343 333 323 314 309 304 300 297 293 288 283 279 278 276 273 272 272 270 267 263 259 257 257 258 259 263 263 260 257 254 254 254 249
3 350 350 49 150 190 176 180 164 174 222 246 247 216 173 258 169 151 153 137 124 117 85 66 46 41 34 24 25 28 30 32 32 33 32 31 30 28 26 26 24 24 23 22 20 19 18 17 16 16 16 15 16 15 16 18 18 16 15 14 10 5 1 356 349 340 331 323 316 310 304 299 298 295 288 283 280 278 275 271 270 272 272 269 268 266 266 265 265 266 264 261 258 255 252 250 245
351 3 343 351 347 272 281 275 113 122 188 233 240 230 216 9 69 125 120 110 113 111 95 82 60 49 39 29 26 26 27 26 27 28 26 25 24 21 20 18 17 17 16 15 14 13 12 11 10 10 9 8 9 10 11 12 12 12 12 12 10 6 1 355 351 345 337 328 320 315 310 302 298 297 294 288 283 280 277 275 273 276 277 275 273 273 273 273 273 270 264 259 256 250 245 242 237
358 349 334 357 330 302 249 249 228 99 185 185 202 241 272 58 77 98 99 102 105 99 99 99 73 52 39 31 26 24 23 22 22 22 20 18 15 13 11 9 7 7 6 6 6 5 5 5 4 5 4 4 4 4 5 6 6 6 7 8 7 6 3 357 351 345 340 333 324 318 316 310 303 298 296 292 286 282 278 278 278 279 280 280 278 278 281 285 284 277 267 260 252 245 241 238 234